Location: Bavegemberg
(50.9500°N, 3.8833°E)
Time: 10:50:58
(UTC+00:00)

Cosmos 724 - Pass Details

Date: 23 May 2024
Orbit: 864 x 930 km, 65.6° (Epoch: 14 June)

Event Time Altitude Azimuth Distance (km) Brightness Sun altitude
Exits shadow 00:12:03 30° 202° (SSW) 1,537 5.0 -18.1°
Maximum altitude 00:15:04 72° 125° (SE) 924 4.3 -18.0°
Drops below altitude 10° 00:20:53 10° 43° (NE) 2,524 7.5 -17.9°
Sets 00:23:22 0° 41° (NE) 3,460 8.4 -17.8°
